TimeCDT,TemperatureF,Dew PointF,Humidity,Sea Level PressureIn,VisibilityMPH,Wind Direction,Wind SpeedMPH,Gust SpeedMPH,PrecipitationIn,Events,Conditions,WindDirDegrees,DateUTC
12:55 AM,45.0,39.0,80,30.16,10.0,North,16.1,23.0,N/A,,Mostly Cloudy,10,2013-05-02 05:55:00
1:55 AM,44.1,37.9,79,30.18,10.0,North,15.0,23.0,N/A,,Overcast,360,2013-05-02 06:55:00
2:43 AM,42.8,39.2,87,30.18,3.0,North,17.3,24.2,0.02,Rain-Thunderstorm,Heavy Thunderstorms and Rain,360,2013-05-02 07:43:00
2:50 AM,42.8,39.2,87,30.18,2.0,North,13.8,24.2,0.14,Rain-Thunderstorm,Thunderstorms and Rain,350,2013-05-02 07:50:00
2:55 AM,42.1,39.0,89,30.19,2.5,North,13.8,20.7,0.20,Rain,Heavy Rain,360,2013-05-02 07:55:00
3:55 AM,42.1,39.0,89,30.20,10.0,North,11.5,23.0,0.02,,Mostly Cloudy,360,2013-05-02 08:55:00
4:55 AM,41.0,37.9,89,30.20,10.0,North,12.7,25.3,N/A,,Mostly Cloudy,360,2013-05-02 09:55:00
5:10 AM,41.0,37.4,87,30.21,10.0,North,15.0,21.9,N/A,,Mostly Cloudy,350,2013-05-02 10:10:00
5:55 AM,41.0,37.9,89,30.25,9.0,North,13.8,20.7,N/A,,Overcast,350,2013-05-02 10:55:00
6:55 AM,39.9,37.0,89,30.27,9.0,North,18.4,27.6,N/A,,Overcast,350,2013-05-02 11:55:00
7:55 AM,39.9,37.0,89,30.30,10.0,North,13.8,28.8,N/A,,Overcast,10,2013-05-02 12:55:00
8:34 AM,39.2,37.4,93,30.27,9.0,North,15.0,20.7,N/A,,Overcast,10,2013-05-02 13:34:00
8:55 AM,39.9,37.0,89,30.30,9.0,North,13.8,26.5,N/A,,Overcast,360,2013-05-02 13:55:00
9:55 AM,41.0,37.9,89,30.29,10.0,North,15.0,23.0,N/A,,Overcast,360,2013-05-02 14:55:00
10:55 AM,42.1,37.9,85,30.31,10.0,North,18.4,25.3,N/A,,Overcast,350,2013-05-02 15:55:00
11:08 AM,41.0,37.4,87,30.29,7.0,NNW,13.8,24.2,N/A,,Overcast,340,2013-05-02 16:08:00
11:55 AM,41.0,37.9,89,30.33,5.0,North,15.0,23.0,N/A,,Overcast,350,2013-05-02 16:55:00
12:55 PM,39.9,37.0,89,30.33,3.0,North,13.8,25.3,N/A,,Overcast,350,2013-05-02 17:55:00
1:43 PM,39.2,37.4,93,30.30,9.0,North,17.3,26.5,N/A,,Overcast,350,2013-05-02 18:43:00
1:55 PM,39.0,36.0,89,30.33,6.0,NNW,18.4,25.3,N/A,,Overcast,340,2013-05-02 18:55:00
2:12 PM,37.4,35.6,93,30.30,5.0,North,17.3,-,N/A,,Overcast,350,2013-05-02 19:12:00
2:55 PM,37.9,36.0,93,30.32,8.0,North,18.4,25.3,0.00,Rain,Light Rain,350,2013-05-02 19:55:00
3:55 PM,37.9,36.0,93,30.31,10.0,North,13.8,20.7,0.02,Rain,Light Rain,360,2013-05-02 20:55:00
4:37 PM,37.4,35.6,93,30.27,10.0,North,16.1,21.9,0.00,Rain,Light Rain,350,2013-05-02 21:37:00
4:55 PM,37.0,35.1,93,30.30,10.0,North,18.4,25.3,0.00,,Overcast,360,2013-05-02 21:55:00
5:55 PM,36.0,34.0,93,30.31,10.0,North,12.7,24.2,0.00,,Overcast,350,2013-05-02 22:55:00
6:40 PM,35.6,33.8,93,30.28,2.5,NNW,17.3,27.6,0.00,,Overcast,340,2013-05-02 23:40:00
6:55 PM,35.1,33.1,92,30.31,2.5,North,20.7,27.6,0.00,,Overcast,350,2013-05-02 23:55:00
7:18 PM,35.6,33.8,93,30.28,1.8,North,15.0,25.3,0.01,Snow,Light Snow,360,2013-05-03 00:18:00
7:30 PM,35.6,33.8,93,30.28,2.5,North,16.1,25.3,0.01,,Overcast,350,2013-05-03 00:30:00
7:38 PM,35.6,33.8,93,30.28,3.0,NNW,17.3,25.3,0.02,Rain,Light Rain,340,2013-05-03 00:38:00
7:55 PM,35.1,33.1,92,30.30,5.0,North,16.1,23.0,0.02,,Overcast,350,2013-05-03 00:55:00
8:18 PM,33.8,33.8,100,30.27,4.0,North,16.1,25.3,0.01,Rain,Light Rain,360,2013-05-03 01:18:00
8:52 PM,33.8,33.8,100,30.27,6.0,North,15.0,21.9,0.02,,Overcast,350,2013-05-03 01:52:00
8:55 PM,34.0,33.1,96,30.31,6.0,North,16.1,21.9,0.02,,Overcast,350,2013-05-03 01:55:00
9:11 PM,33.8,33.8,100,30.27,9.0,North,16.1,24.2,0.00,,Overcast,350,2013-05-03 02:11:00
9:55 PM,34.0,33.1,96,30.30,10.0,North,12.7,21.9,0.00,Rain,Light Rain,360,2013-05-03 02:55:00
10:55 PM,34.0,33.1,96,30.28,5.0,North,13.8,25.3,0.00,,Overcast,360,2013-05-03 03:55:00
11:12 PM,33.8,33.8,100,30.23,2.5,North,15.0,23.0,0.01,Snow,Light Snow,360,2013-05-03 04:12:00
11:27 PM,33.8,33.8,100,30.23,3.0,North,13.8,21.9,0.01,Snow,Light Snow,350,2013-05-03 04:27:00
11:55 PM,34.0,33.1,96,30.26,7.0,NNW,13.8,21.9,0.02,,Overcast,340,2013-05-03 04:55:00